Location: Colonia Mina de C?rbuni
(46.1667°N, 22.7167°E)
Time: 01:17:04
(UTC+00:00)

deb Explorer IX - Pass Details

Date: 22 April 2024
Orbit: 513 x 891 km, 38.7° (Epoch: 21 May)

Event Time Altitude Azimuth Distance (km) Brightness Sun altitude
Rises 08:26:59 0° 221° (SW) 3,285 ? 47.7°
Reaches altitude 10° 08:29:48 10° 208° (SSW) 2,418 ? 48.1°
Maximum altitude 08:34:25 25° 155° (SSE) 1,677 ? 48.6°
Drops below altitude 10° 08:39:18 10° 103° (ESE) 2,561 ? 49.2°
Sets 08:42:21 0° 91° (E) 3,522 ? 49.6°
